Location: ????????
(55.0097°N, 38.5678°E)
Time: 22:19:40
(UTC+00:00)

CZ-6A DEB - Visible Passes

Search period start: 19 September 2024 00:00
Search period end: 29 September 2024 00:00
Orbit: 825 x 1088 km, 98.8° (Epoch: 18 September)

Date Brightness Start Highest point End Pass type
(mag) Time Alt. Az. Time Alt. Az. Time Alt. Az.
19 Sep ? 00:10:09 10° NE 00:14:04 19° E 00:18:07 10° SE visible
19 Sep ? 01:52:07 10° NNE 01:57:43 87° ESE 02:03:39 10° SSW visible
20 Sep ? 00:28:55 10° NE 00:33:34 26° E 00:38:24 10° SSE visible
20 Sep ? 02:11:23 10° NNE 02:16:58 72° WNW 02:22:52 10° SSW visible
21 Sep ? 00:47:53 10° NNE 00:53:00 34° E 00:58:22 10° SSE visible
21 Sep ? 02:30:42 10° N 02:36:09 55° WNW 02:41:55 10° SW visible
22 Sep ? 01:06:56 10° NNE 01:12:23 46° E 01:18:08 10° S visible
22 Sep ? 23:45:09 10° NE 23:47:43 13° E 23:50:19 10° ESE visible
23 Sep ? 01:26:04 10° NNE 01:31:43 61° ESE 01:37:42 10° S visible
24 Sep ? 00:03:25 10° NE 00:07:17 18° E 00:11:15 10° SE visible
24 Sep ? 01:45:16 10° NNE 01:51:00 81° ESE 01:57:05 10° SSW visible
25 Sep ? 00:22:08 10° NE 00:26:46 24° E 00:31:36 10° SE visible
25 Sep ? 02:04:30 10° NNE 02:10:14 78° WNW 02:16:20 10° SSW visible
26 Sep ? 00:41:03 10° NNE 00:46:13 32° E 00:51:39 10° SSE visible
26 Sep ? 02:23:47 10° NNE 02:29:26 60° WNW 02:35:25 10° SW visible
27 Sep ? 01:00:05 10° NNE 01:05:36 43° E 01:11:26 10° SSE visible
27 Sep ? 02:43:07 10° N 02:48:34 47° WNW 02:54:22 10° SW visible
27 Sep ? 23:38:32 10° ENE 23:40:51 12° E 23:43:13 10° ESE visible
28 Sep ? 01:19:12 10° NNE 01:24:57 57° ESE 01:31:03 10° S visible
